• In Kazakhstan
  • List of Countries
  • For 7 days
  • Water Temperature
  • Satellite Maps
  • Weather Map
  • News
  • Weather Widgets
  • user-avatar
    Login

    Hourly Weather Eisenstadt

    Today, 23 November, Thursday

    Time Temperature Precipitation Wind Pressure Humidity
    00:00 +6°C° 0 mm 1 mps 721 mmHg 75%
    01:00 +6°C° 0 mm 1 mps 721 mmHg 74%
    02:00 +5°C° 0 mm 1 mps 720 mmHg 75%
    03:00 +5°C° 0 mm 1 mps 720 mmHg 75%
    04:00 +5°C° 0 mm 1 mps 720 mmHg 76%
    05:00 +5°C° 0 mm 1 mps 720 mmHg 76%
    06:00 +4°C° 0 mm 1 mps 720 mmHg 77%
    07:00 +3°C° 0 mm 1 mps 720 mmHg 76%
    08:00 +4°C° 0 mm 1 mps 720 mmHg 74%
    09:00 +5°C° 0 mm 2 mps 721 mmHg 72%
    10:00 +6°C° 0 mm 2 mps 721 mmHg 70%
    11:00 +7°C° 0 mm 2 mps 721 mmHg 69%
    12:00 +8°C° 0 mm 2 mps 721 mmHg 67%
    13:00 +10°C° 0 mm 1 mps 721 mmHg 66%
    14:00 +9°C° 0 mm 1 mps 721 mmHg 72%
    15:00 +8°C° 0 mm 1 mps 721 mmHg 77%
    16:00 +7°C° 0 mm 1 mps 721 mmHg 83%
    17:00 +6°C° 0 mm 1 mps 721 mmHg 83%
    18:00 +6°C° 0 mm 1 mps 722 mmHg 84%
    19:00 +5°C° 0 mm 1 mps 722 mmHg 85%
    20:00 +5°C° 0 mm 1 mps 722 mmHg 83%
    21:00 +5°C° 0 mm 1 mps 722 mmHg 82%
    22:00 +5°C° 0 mm 1 mps 723 mmHg 81%
    23:00 +5°C° 0 mm 1 mps 723 mmHg 80%

    Tomorrow, 24 November, Friday

    Time Temperature Precipitation Wind Pressure Humidity
    00:00 +5°C° 0 mm 1 mps 723 mmHg 80%
    01:00 +5°C° 0 mm 1 mps 723 mmHg 79%
    02:00 +5°C° 0 mm 1 mps 723 mmHg 79%
    03:00 +5°C° 0 mm 1 mps 723 mmHg 79%
    04:00 +4°C° 0 mm 0 mps 723 mmHg 79%
    05:00 +4°C° 0 mm 0 mps 723 mmHg 79%
    06:00 +4°C° 0 mm 0 mps 723 mmHg 79%
    07:00 +5°C° 0 mm 1 mps 723 mmHg 79%
    08:00 +6°C° 0 mm 1 mps 723 mmHg 75%
    09:00 +8°C° 0 mm 1 mps 724 mmHg 71%
    10:00 +9°C° 0 mm 1 mps 724 mmHg 67%
    11:00 +10°C° 0 mm 1 mps 723 mmHg 65%
    12:00 +10°C° 0 mm 2 mps 723 mmHg 62%
    13:00 +12°C° 0 mm 2 mps 723 mmHg 60%
    14:00 +10°C° 0 mm 2 mps 723 mmHg 65%
    15:00 +9°C° 0 mm 2 mps 723 mmHg 71%
    16:00 +7°C° 0 mm 2 mps 723 mmHg 77%
    17:00 +7°C° 0 mm 2 mps 723 mmHg 79%
    18:00 +6°C° 0 mm 2 mps 723 mmHg 81%
    19:00 +6°C° 0 mm 2 mps 723 mmHg 83%
    20:00 +5°C° 0 mm 2 mps 723 mmHg 83%
    21:00 +5°C° 0 mm 2 mps 723 mmHg 83%
    22:00 +5°C° 0 mm 2 mps 722 mmHg 83%
    23:00 +5°C° 0 mm 2 mps 722 mmHg 84%

    Day after tomorrow, 25 November, Saturday

    Time Temperature Precipitation Wind Pressure Humidity
    00:00 +5°C° 0 mm 2 mps 722 mmHg 84%
    01:00 +4°C° 0 mm 2 mps 722 mmHg 85%
    02:00 +4°C° 0 mm 2 mps 721 mmHg 86%
    03:00 +3°C° 0 mm 3 mps 721 mmHg 88%
    04:00 +3°C° 0 mm 3 mps 720 mmHg 90%
    05:00 +3°C° 0 mm 3 mps 720 mmHg 90%
    06:00 +3°C° 0 mm 4 mps 719 mmHg 90%
    07:00 +3°C° 0 mm 4 mps 719 mmHg 91%
    08:00 +5°C° 0 mm 5 mps 718 mmHg 86%
    09:00 +6°C° 0 mm 5 mps 718 mmHg 82%
    10:00 +7°C° 0 mm 6 mps 718 mmHg 77%
    11:00 +8°C° 0 mm 6 mps 717 mmHg 75%
    12:00 +9°C° 0 mm 7 mps 716 mmHg 73%
    13:00 +10°C° 0 mm 7 mps 716 mmHg 71%
    14:00 +10°C° 0 mm 6 mps 716 mmHg 73%
    15:00 +9°C° 0 mm 5 mps 716 mmHg 75%
    16:00 +10°C° 0 mm 4 mps 716 mmHg 77%
    17:00 +8°C° 0.4 mm 4 mps 716 mmHg 79%
    18:00 +9°C° 0.4 mm 3 mps 717 mmHg 82%
    19:00 +8°C° 0.4 mm 3 mps 717 mmHg 85%
    20:00 +8°C° 2.4 mm 3 mps 718 mmHg 85%
    21:00 +6°C° 2.4 mm 4 mps 718 mmHg 85%
    22:00 +5°C° 2.4 mm 4 mps 718 mmHg 85%
    23:00 +5°C° 1.4 mm 4 mps 719 mmHg 85%

    26 November, Sunday

    Time Temperature Precipitation Wind Pressure Humidity
    00:00 +4°C° 1.4 mm 4 mps 719 mmHg 85%
    01:00 +4°C° 1.4 mm 4 mps 719 mmHg 85%
    02:00 +4°C° 0.6 mm 4 mps 720 mmHg 84%
    03:00 +4°C° 0.6 mm 4 mps 720 mmHg 84%
    04:00 +4°C° 0.6 mm 4 mps 720 mmHg 84%
    05:00 +3°C° 0.2 mm 4 mps 721 mmHg 84%
    06:00 +3°C° 0.2 mm 4 mps 721 mmHg 83%
    07:00 +2°C° 0.2 mm 5 mps 722 mmHg 83%
    08:00 +2°C° 0.1 mm 5 mps 722 mmHg 80%
    09:00 +2°C° 0.1 mm 6 mps 723 mmHg 77%
    10:00 +2°C° 0.1 mm 6 mps 723 mmHg 74%
    11:00 +2°C° 0 mm 7 mps 724 mmHg 71%
    12:00 +2°C° 0 mm 7 mps 724 mmHg 68%
    13:00 +2°C° 0 mm 7 mps 724 mmHg 65%
    14:00 +2°C° 0 mm 7 mps 725 mmHg 66%
    15:00 +1°C° 0 mm 6 mps 725 mmHg 68%
    16:00 +1°C° 0 mm 5 mps 725 mmHg 69%
    17:00 -1°C° 0 mm 6 mps 726 mmHg 69%
    18:00 -1°C° 0 mm 6 mps 726 mmHg 70%
    19:00 -2°C° 0 mm 6 mps 726 mmHg 70%
    20:00 -2°C° 0 mm 6 mps 727 mmHg 71%
    21:00 -2°C° 0 mm 5 mps 727 mmHg 72%
    22:00 -2°C° 0 mm 5 mps 727 mmHg 73%
    23:00 -2°C° 0 mm 5 mps 728 mmHg 73%

    27 November, Monday

    Time Temperature Precipitation Wind Pressure Humidity
    00:00 -4°C° 0 mm 5 mps 728 mmHg 73%
    01:00 -4°C° 0 mm 5 mps 728 mmHg 73%
    02:00 -3°C° 0 mm 4 mps 728 mmHg 74%
    03:00 -3°C° 0 mm 4 mps 728 mmHg 75%
    04:00 -3°C° 0 mm 4 mps 728 mmHg 75%
    05:00 -3°C° 0 mm 4 mps 728 mmHg 76%
    06:00 -4°C° 0 mm 3 mps 728 mmHg 77%
    07:00 -4°C° 0 mm 3 mps 728 mmHg 77%
    08:00 -2°C° 0 mm 3 mps 728 mmHg 72%
    09:00 -2°C° 0 mm 4 mps 729 mmHg 67%
    10:00 -1°C° 0 mm 4 mps 729 mmHg 62%
    11:00 0°C° 0 mm 4 mps 728 mmHg 60%
    12:00 +1°C° 0 mm 4 mps 728 mmHg 57%
    13:00 +1°C° 0 mm 4 mps 728 mmHg 54%
    14:00 +1°C° 0 mm 3 mps 727 mmHg 59%
    15:00 0°C° 0 mm 3 mps 727 mmHg 63%
    16:00 +1°C° 0 mm 2 mps 727 mmHg 67%
    17:00 -1°C° 0 mm 2 mps 727 mmHg 69%
    18:00 -2°C° 0 mm 2 mps 727 mmHg 72%
    19:00 -2°C° 0 mm 2 mps 727 mmHg 74%
    20:00 -2°C° 0 mm 2 mps 727 mmHg 75%
    21:00 -3°C° 0 mm 2 mps 727 mmHg 75%
    22:00 -1°C° 0 mm 1 mps 727 mmHg 75%
    23:00 -1°C° 0 mm 1 mps 727 mmHg 75%

    28 November, Tuesday

    Time Temperature Precipitation Wind Pressure Humidity
    00:00 -1°C° 0 mm 1 mps 726 mmHg 75%
    01:00 -1°C° 0 mm 1 mps 726 mmHg 75%
    02:00 -1°C° 0 mm 1 mps 726 mmHg 74%
    03:00 -1°C° 0 mm 1 mps 725 mmHg 74%
    04:00 -1°C° 0 mm 1 mps 725 mmHg 73%
    05:00 -1°C° 0 mm 1 mps 725 mmHg 73%
    06:00 -1°C° 0 mm 1 mps 725 mmHg 73%
    07:00 -1°C° 0 mm 1 mps 725 mmHg 72%
    08:00 0°C° 0 mm 1 mps 725 mmHg 68%
    09:00 -1°C° 0 mm 2 mps 724 mmHg 63%
    10:00 +2°C° 0 mm 2 mps 724 mmHg 59%
    11:00 +2°C° 0 mm 2 mps 724 mmHg 57%
    12:00 +3°C° 0 mm 2 mps 723 mmHg 55%
    13:00 +3°C° 0 mm 3 mps 723 mmHg 53%
    14:00 +3°C° 0 mm 2 mps 722 mmHg 59%
    15:00 +2°C° 0 mm 2 mps 722 mmHg 65%
    16:00 -1°C° 0 mm 2 mps 722 mmHg 71%
    17:00 -1°C° 0 mm 2 mps 722 mmHg 73%
    18:00 -2°C° 0 mm 3 mps 721 mmHg 75%
    19:00 -2°C° 0 mm 3 mps 721 mmHg 76%
    20:00 -2°C° 0 mm 3 mps 721 mmHg 76%
    21:00 -2°C° 0 mm 3 mps 721 mmHg 76%
    22:00 -2°C° 0 mm 3 mps 721 mmHg 75%
    23:00 -2°C° 0 mm 3 mps 720 mmHg 76%
    Show more